Showing default

OV1-14, 3174

Orbit data source: Space-Track

OV1-14, 3174 is a payload satellite owned by USAF OAR (US) that was launched on Sat, 06 Apr 1968 UTC via an ATLAS F launch vehicle from the Air Force Western Test Range (AFWTR). Payload-class satellites include a variety of spacecraft equipped with specific instruments for various scientific and technological missions. These include communications satellites like Starlink; space stations such as the ISS; scientific satellites like the Hubble; Earth observation satellites from companies like Planet Labs, Umbra, and HawkEye 360; GPS; miniature CubeSats for education and research; and military/defense satellites.

Loading next visibility...
Identifier
3174, 1968-026B
Orbit
Active
Country
Flag of USUS
Related business
Manufacturer
GD/Convair
Mission
Spacecraft
Bus & Motor
OV1, Unknown motor
Mass
101 kg wet, 101 kg dry
Launch date (UTC)
1968-04-06 (58 years ago)
Launch vehicle
ATLAS F
Launch site
Air Force Western Test Range (AFWTR)
Object type
Payload
Rocket body
Debris
Shape & HBR
Unknown
Radar Cross Section
Medium (>0.1 m² and <1 m²)

Expand to show TLE details & history
Last TLE update: 8 hours ago

TLE from 8 hours ago
0 OV1-14
1 03174U 68026B   25292.22615708  .00000183  00000-0  30068-3 0  9990
2 03174 100.0022 286.4280 4006891 120.1242   2.7524  6.96692850459539
Epoch: 2025-10-19T05:25Z
TLE epoch observation values (Epoch: 2025-10-19T05:25:39.971Z)
Latitude
51.83765°
Longitude
9.95833°
Altitude
583.243 km
Speed
8.961 km/s
True Right ascension
07h 57m 16s
True Declination
51° 39' 58"
Sunlit
Object was in daylight at epoch
Visualization orbit readout
Latitude
Unknown
Longitude
Unknown
Altitude
Unknown
Speed
Unknown
Apparent Right ascension
Unknown
Apparent Declination
Unknown
Sunlit
N/A
Visualization observer readout
Local Sidereal Time
08:34:21
Azimuth
Unknown
Elevation
Unknown
Doppler factor
Unknown
Orbital elements
Apogee altitude
9,838.668 km
Perigee altitude
560.525 km
Semi-major axis
11,577.733 km
Eccentricity
0.40069
Inclination
100.0022°
RAAN
286.428°
Arg. of periapsis
120.1242°
True anomaly
7.01106°
Mean anomaly
2.7524°
Eccentric anomaly
4.58933°
Mean motion
1.74224 °/min
Orbital period
206.63 mins
BSTAR
0.00030068
Loading maneuver chart data...
Computing Atmospheric mass density...
Loading historical data...
Loading historical data...
Loading historical data...
Loading historical data...
Loading historical data...
Loading historical data...
Loading historical data...
Other satellites on launch #26 in the year 1968 (1968-04-06 UTC)

Documentation

Showing up to 5 results
|